�N����,����,�~����,�C��,���x,�C��,����,���ϕ���,�ő�u�ԕ���,�ő厞����,���˗�,�I�_���x,�n�����x,�ő啗���N��,DTYPE
"21/06/08","00:10",0.0,20.0,70.6,1010.7,298.5,1.2,2.7,321.7,0.00,14.5,130.0,"00:04:08",1
"21/06/08","00:20",0.0,19.7,71.0,1010.9,293.9,0.8,1.1,301.8,0.00,14.3,130.0,"00:14:56",1
"21/06/08","00:30",0.0,19.6,72.0,1010.4,304.8,1.5,3.1,331.5,0.00,14.5,130.0,"00:25:12",1
"21/06/08","00:40",0.0,19.5,72.6,1010.7,299.7,1.5,2.5,336.7,0.00,14.5,130.0,"00:30:08",1
"21/06/08","00:50",0.0,19.4,73.2,1010.4,303.0,1.5,3.4,343.4,0.00,14.5,130.0,"00:45:20",1
"21/06/08","01:00",0.0,19.1,73.5,1010.4,286.6,0.6,1.0,314.1,0.00,14.3,130.0,"00:57:28",1
"21/06/08","01:10",0.0,19.0,74.7,1010.7,305.7,0.7,1.7,335.4,0.00,14.4,130.0,"01:00:02",1
"21/06/08","01:20",0.0,18.6,77.3,1010.4,331.3,1.3,1.8,337.2,0.00,14.6,130.0,"01:10:08",1
"21/06/08","01:30",0.0,18.1,78.9,1010.2,295.7,1.0,1.4,328.4,0.00,14.4,130.0,"01:28:48",1
"21/06/08","01:40",0.0,18.0,79.7,1010.4,308.0,1.1,1.7,308.3,0.00,14.5,130.0,"01:31:36",1
"21/06/08","01:50",0.0,18.0,80.0,1010.2,312.0,1.2,1.6,321.6,0.00,14.5,130.0,"01:42:40",1
"21/06/08","02:00",0.0,17.9,80.3,1010.4,306.9,1.1,1.9,329.0,0.00,14.5,130.0,"01:51:04",1
"21/06/08","02:10",0.0,17.8,80.6,1010.4,310.7,1.3,2.0,326.1,0.00,14.5,130.0,"02:04:40",1
"21/06/08","02:20",0.0,17.8,80.8,1010.4,295.7,1.1,1.7,314.1,0.00,14.5,130.0,"02:17:36",1
"21/06/08","02:30",0.0,17.8,80.9,1010.4,302.0,1.3,2.5,330.2,0.00,14.5,130.0,"02:20:56",1
"21/06/08","02:40",0.0,17.7,81.1,1010.4,303.7,1.2,1.7,332.6,0.00,14.5,130.0,"02:37:36",1
"21/06/08","02:50",0.0,17.7,81.4,1010.4,325.5,1.5,2.5,327.5,0.00,14.5,130.0,"02:40:48",1
"21/06/08","03:00",0.0,17.5,81.8,1010.7,324.0,1.0,1.4,329.4,0.00,14.4,130.0,"02:52:08",1
"21/06/08","03:10",0.0,17.2,82.3,1010.7,302.9,1.0,1.2,312.1,0.00,14.2,130.0,"03:00:56",1
"21/06/08","03:20",0.0,17.4,83.3,1010.4,313.6,1.5,2.4,307.3,0.00,14.6,130.0,"03:15:36",1
"21/06/08","03:30",0.0,17.2,83.7,1010.7,309.3,1.1,1.7,336.7,0.00,14.5,130.0,"03:20:48",1
"21/06/08","03:40",0.0,17.1,84.4,1010.9,299.0,1.1,1.7,325.1,0.00,14.5,130.0,"03:35:12",1
"21/06/08","03:50",0.0,17.0,84.7,1010.9,306.8,1.2,1.9,320.5,0.00,14.4,130.0,"03:40:32",1
"21/06/08","04:00",0.0,17.0,85.1,1010.9,321.7,1.1,1.4,326.8,0.00,14.5,130.0,"03:50:56",1
"21/06/08","04:10",0.0,16.8,85.5,1010.9,320.7,1.0,1.4,325.0,0.00,14.4,130.0,"04:05:08",1
"21/06/08","04:20",0.0,16.8,86.0,1010.9,305.7,1.2,1.8,312.5,0.00,14.5,130.0,"04:12:32",1
"21/06/08","04:30",0.0,16.9,86.5,1011.2,330.4,1.2,1.9,326.9,0.00,14.7,130.0,"04:20:08",1
"21/06/08","04:40",0.0,16.6,86.8,1011.2,319.4,1.0,1.2,333.5,0.00,14.4,130.0,"04:30:08",1
"21/06/08","04:50",0.0,16.5,87.2,1011.4,321.4,1.1,1.9,323.1,0.00,14.4,130.0,"04:45:12",1
"21/06/08","05:00",0.0,16.5,87.7,1011.2,308.1,1.2,1.7,318.1,0.00,14.5,130.0,"04:51:28",1
"21/06/08","05:10",0.0,16.6,87.9,1011.2,328.3,0.6,1.8,313.9,0.00,14.6,130.0,"05:00:32",1
"21/06/08","05:20",0.0,16.5,88.2,1011.4,312.8,1.1,1.7,325.2,0.00,14.6,130.0,"05:17:28",1
"21/06/08","05:30",0.0,16.4,88.6,1011.2,317.8,1.1,1.6,325.7,0.00,14.6,130.0,"05:25:36",1
"21/06/08","05:40",0.0,16.5,89.0,1011.2,293.7,1.0,1.3,299.3,0.00,14.7,130.0,"05:39:28",1
"21/06/08","05:50",0.0,16.8,89.2,1011.4,303.7,1.0,1.7,316.7,0.01,15.1,130.0,"05:47:36",1
"21/06/08","06:00",0.0,17.1,89.4,1011.2,317.6,1.1,1.6,320.1,0.02,15.4,130.0,"05:52:16",1
"21/06/08","06:10",0.0,17.6,89.5,1011.4,322.2,0.8,1.3,325.9,0.03,15.9,130.0,"06:00:40",1
"21/06/08","06:20",0.0,18.6,89.5,1011.6,316.0,0.6,0.8,321.3,0.04,16.9,130.0,"06:12:56",1
"21/06/08","06:30",0.0,19.4,88.9,1011.6,302.6,0.2,0.6,302.1,0.06,17.6,130.0,"06:23:12",1
"21/06/08","06:40",0.0,20.1,88.7,1011.9,306.1,0.3,0.6,290.4,0.07,18.2,130.0,"06:35:52",1
"21/06/08","06:50",0.0,20.7,88.3,1011.6,43.3,0.2,0.8,353.7,0.08,18.7,130.0,"06:48:56",1
"21/06/08","07:00",0.0,20.5,86.4,1011.6,359.2,0.8,1.3,343.8,0.10,18.2,130.0,"06:52:16",1
"21/06/08","07:10",0.0,21.2,84.6,1011.6,339.6,0.5,1.3,326.3,0.12,18.5,130.0,"07:02:40",1
"21/06/08","07:20",0.0,21.9,81.9,1011.2,291.1,0.2,0.8,243.4,0.15,18.7,130.0,"07:19:44",1
"21/06/08","07:30",0.0,22.6,78.7,1011.4,263.4,0.3,1.0,236.1,0.18,18.8,130.0,"07:21:20",1
"21/06/08","07:40",0.0,23.4,74.0,1011.2,210.2,0.2,1.3,340.2,0.18,18.5,130.0,"07:39:44",1
"21/06/08","07:50",0.0,23.9,69.9,1011.2,349.1,0.6,1.4,35.7,0.20,18.1,130.0,"07:43:44",1
"21/06/08","08:00",0.0,24.4,67.6,1011.2,107.2,0.3,0.9,129.6,0.21,18.1,130.0,"07:57:28",1
"21/06/08","08:10",0.0,24.7,66.3,1010.7,203.5,0.2,0.9,71.7,0.21,18.0,130.0,"08:06:40",1
"21/06/08","08:20",0.0,25.2,64.3,1010.4,35.9,0.3,1.0,65.4,0.27,18.0,130.0,"08:12:32",1
"21/06/08","08:30",0.0,25.4,63.1,1010.0,188.2,0.5,1.8,111.7,0.28,17.9,130.0,"08:27:28",1
"21/06/08","08:40",0.0,25.8,62.2,1010.0,133.7,0.6,1.6,104.9,0.30,18.1,130.0,"08:34:40",1
"21/06/08","08:50",0.0,26.1,62.1,1010.0,148.5,0.6,1.7,199.2,0.33,18.3,130.0,"08:40:08",1
"21/06/08","09:00",0.0,26.2,60.4,1010.2,25.5,0.6,2.0,334.3,0.32,18.0,130.0,"08:56:24",1
"21/06/08","09:10",0.0,26.3,60.6,1010.0,194.9,1.1,2.4,129.1,0.37,18.1,130.0,"09:01:20",1
"21/06/08","09:20",0.0,26.5,61.8,1010.4,191.6,1.1,2.1,225.3,0.38,18.6,130.0,"09:10:40",1
"21/06/08","09:30",0.0,26.6,62.1,1010.2,196.8,1.3,2.8,193.6,0.38,18.8,130.0,"09:22:48",1
"21/06/08","09:40",0.0,27.2,59.3,1010.9,194.6,0.7,2.5,197.7,0.42,18.6,130.0,"09:32:24",1
"21/06/08","09:50",0.0,27.7,58.0,1010.7,132.3,0.8,1.9,189.6,0.41,18.7,130.0,"09:43:44",1
"21/06/08","10:00",0.0,28.1,56.2,1010.4,273.8,0.8,2.9,222.5,0.45,18.6,130.0,"09:50:02",1
"21/06/08","10:10",0.0,28.5,59.6,1010.7,170.8,1.0,2.5,161.9,0.47,19.9,130.0,"10:02:48",1
"21/06/08","10:20",0.0,28.9,55.7,1010.7,15.5,0.7,1.9,13.6,0.43,19.2,130.0,"10:13:12",1
"21/06/08","10:30",0.0,28.7,57.6,1010.9,162.9,1.5,3.5,134.6,0.42,19.6,130.0,"10:20:02",1
"21/06/08","10:40",0.0,29.0,54.0,1010.7,76.4,1.1,2.9,12.5,0.49,18.8,130.0,"10:38:56",1
"21/06/08","10:50",0.0,29.3,53.2,1010.4,15.3,1.2,2.1,355.0,0.50,18.8,130.0,"10:40:16",1
"21/06/08","11:00",0.0,29.7,53.8,1010.4,116.7,0.8,1.9,123.2,0.48,19.4,130.0,"10:56:08",1
"21/06/08","11:10",0.0,30.2,53.4,1010.2,179.3,1.0,2.0,208.9,0.50,19.7,130.0,"11:04:56",1
"21/06/08","11:20",0.0,30.0,53.2,1010.2,193.7,1.7,3.7,196.0,0.53,19.5,130.0,"11:17:20",1
"21/06/08","11:30",0.0,30.5,52.7,1010.2,146.3,1.2,3.6,222.4,0.56,19.8,130.0,"11:20:32",1
"21/06/08","11:40",0.0,30.7,51.3,1010.2,124.5,1.3,2.7,112.7,0.54,19.5,130.0,"11:32:08",1
"21/06/08","11:50",0.0,31.4,52.4,1010.4,148.6,1.3,3.2,170.2,0.56,20.5,130.0,"11:42:56",1
"21/06/08","12:00",0.0,31.3,49.5,1010.2,184.2,1.5,3.5,179.9,0.59,19.5,130.0,"11:56:00",1
"21/06/08","12:10",0.0,31.4,48.2,1010.4,200.5,1.5,2.8,183.9,0.62,19.2,130.0,"12:04:32",1
"21/06/08","12:20",0.0,31.9,46.6,1010.2,250.3,1.0,2.6,305.0,0.56,19.1,130.0,"12:18:32",1
"21/06/08","12:30",0.0,31.5,45.8,1010.7,93.0,1.5,5.8,346.7,0.44,18.5,130.0,"12:28:56",1
"21/06/08","12:40",0.0,30.2,43.6,1010.4,340.9,2.3,4.1,341.9,0.24,16.5,130.0,"12:35:12",1
"21/06/08","12:50",0.0,30.0,43.4,1009.7,328.7,2.0,4.0,336.0,0.26,16.2,130.0,"12:44:16",1
"21/06/08","13:00",0.0,30.6,44.0,1009.7,293.1,1.1,3.3,328.5,0.38,17.0,130.0,"12:59:12",1
"21/06/08","13:10",0.0,30.3,43.4,1009.5,314.9,1.7,3.6,335.3,0.33,16.5,130.0,"13:04:00",1
"21/06/08","13:20",0.0,30.1,43.9,1009.5,328.9,2.3,4.9,341.2,0.35,16.5,130.0,"13:18:56",1
"21/06/08","13:30",0.0,30.1,45.1,1009.5,328.9,2.1,4.2,338.9,0.31,16.9,130.0,"13:24:00",1
"21/06/08","13:40",0.0,29.7,39.8,1009.5,337.8,2.5,5.1,348.8,0.33,14.6,130.0,"13:39:36",1
"21/06/08","13:50",0.0,30.0,39.9,1009.0,349.4,1.8,4.2,342.3,0.35,14.9,130.0,"13:40:08",1
"21/06/08","14:00",0.0,31.4,38.8,1009.5,19.9,1.7,3.3,352.5,0.56,15.7,130.0,"13:51:44",1
"21/06/08","14:10",0.0,32.2,38.1,1009.7,28.4,1.3,3.6,343.6,0.58,16.2,130.0,"14:09:44",1
"21/06/08","14:20",0.0,31.9,37.4,1009.7,355.6,1.8,3.7,356.0,0.54,15.6,130.0,"14:19:20",1
"21/06/08","14:30",0.0,30.1,42.0,1009.5,344.2,3.2,6.6,339.3,0.35,15.8,130.0,"14:28:56",1
"21/06/08","14:40",0.0,29.2,43.7,1009.3,350.2,2.7,4.9,336.7,0.20,15.6,130.0,"14:38:00",1
"21/06/08","14:50",0.0,29.3,43.2,1009.0,343.6,2.3,4.5,342.5,0.22,15.5,130.0,"14:45:36",1
"21/06/08","15:00",0.0,29.6,42.7,1008.6,344.4,2.5,4.5,337.6,0.26,15.6,130.0,"14:52:16",1
"21/06/08","15:10",0.0,29.6,42.4,1008.3,348.3,2.1,4.3,337.7,0.27,15.5,130.0,"15:08:08",1
"21/06/08","15:20",0.0,30.4,39.5,1008.8,4.9,1.7,4.8,345.5,0.38,15.1,130.0,"15:15:12",1
"21/06/08","15:30",0.0,30.2,41.5,1008.6,354.5,1.3,3.2,324.3,0.23,15.7,130.0,"15:23:44",1
"21/06/08","15:40",0.0,30.9,42.9,1008.6,278.8,0.8,2.4,345.0,0.35,16.9,130.0,"15:30:08",1
"21/06/08","15:50",0.0,31.6,37.9,1008.8,87.2,0.5,1.6,76.3,0.35,15.6,130.0,"15:42:16",1
"21/06/08","16:00",0.0,31.7,38.0,1008.8,276.6,0.6,1.4,312.8,0.26,15.7,130.0,"15:50:40",1
"21/06/08","16:10",0.0,31.4,39.2,1009.3,242.1,0.8,1.9,226.7,0.27,15.9,130.0,"16:08:16",1
"21/06/08","16:20",0.0,31.2,42.3,1009.3,269.5,0.8,1.8,232.5,0.24,16.9,130.0,"16:17:12",1
"21/06/08","16:30",0.0,31.0,42.5,1008.8,309.6,1.0,2.9,344.6,0.25,16.8,130.0,"16:28:32",1
"21/06/08","16:40",0.0,30.1,43.1,1008.6,332.9,2.8,4.8,332.7,0.24,16.2,130.0,"16:31:28",1
"21/06/08","16:50",0.0,30.1,41.8,1008.6,338.8,2.5,4.7,344.9,0.22,15.8,130.0,"16:40:56",1
"21/06/08","17:00",0.0,29.7,40.0,1007.8,350.9,2.5,4.5,24.0,0.11,14.7,130.0,"16:51:12",1
"21/06/08","17:10",0.0,29.7,39.1,1007.8,351.0,2.6,5.8,343.8,0.08,14.4,130.0,"17:08:56",1
"21/06/08","17:20",0.0,29.7,37.9,1007.6,5.4,2.3,4.5,353.0,0.07,13.9,130.0,"17:18:32",1
"21/06/08","17:30",0.0,29.5,38.6,1007.6,7.3,2.3,5.2,17.5,0.06,14.0,130.0,"17:27:44",1
"21/06/08","17:40",0.0,29.1,39.7,1007.4,350.7,2.6,6.6,335.2,0.05,14.1,130.0,"17:33:52",1
"21/06/08","17:50",0.0,28.8,37.6,1007.4,358.3,2.1,4.7,342.9,0.04,13.0,130.0,"17:41:04",1
"21/06/08","18:00",0.0,28.5,37.8,1007.1,352.6,2.3,6.2,349.2,0.03,12.8,130.0,"17:55:20",1
"21/06/08","18:10",0.0,28.1,37.2,1007.1,341.9,2.1,4.1,345.8,0.03,12.2,130.0,"18:02:24",1
"21/06/08","18:20",0.0,27.9,38.9,1007.1,336.8,2.1,5.0,350.0,0.02,12.7,130.0,"18:11:36",1
"21/06/08","18:30",0.0,27.7,39.9,1006.9,336.7,1.5,2.7,348.8,0.02,12.9,130.0,"18:21:52",1
"21/06/08","18:40",0.0,27.1,41.9,1007.6,342.7,1.1,2.1,337.5,0.01,13.1,130.0,"18:37:04",1
"21/06/08","18:50",0.0,26.4,47.8,1007.6,333.6,1.1,1.9,343.8,0.00,14.5,130.0,"18:45:36",1
"21/06/08","19:00",0.0,25.4,45.8,1008.3,329.2,0.8,1.4,347.0,0.00,12.9,130.0,"18:53:44",1
"21/06/08","19:10",0.0,25.2,53.5,1008.3,336.0,1.1,1.8,349.7,0.00,15.1,130.0,"19:04:56",1
"21/06/08","19:20",0.0,24.5,53.1,1008.6,323.1,0.6,1.2,323.5,0.00,14.4,130.0,"19:12:00",1
"21/06/08","19:30",0.0,24.2,57.9,1008.8,337.8,1.0,1.8,338.4,0.00,15.4,130.0,"19:26:08",1
"21/06/08","19:40",0.0,23.4,57.9,1009.0,348.8,1.2,1.9,3.1,0.00,14.7,130.0,"19:38:24",1
"21/06/08","19:50",0.0,22.9,57.1,1009.0,332.9,1.1,1.6,340.4,0.00,14.0,130.0,"19:44:24",1
"21/06/08","20:00",0.0,22.5,59.0,1009.3,298.3,0.7,1.8,330.1,0.00,14.1,130.0,"19:59:52",1
"21/06/08","20:10",0.0,22.6,60.6,1009.0,321.9,1.2,2.0,336.7,0.00,14.6,130.0,"20:01:52",1
"21/06/08","20:20",0.0,22.1,61.7,1009.3,320.8,1.1,1.8,336.8,0.00,14.5,130.0,"20:16:16",1
"21/06/08","20:30",0.0,21.9,62.3,1009.5,300.2,1.1,2.2,341.7,0.00,14.4,130.0,"20:22:24",1
"21/06/08","20:40",0.0,21.7,62.2,1009.5,309.8,1.1,1.9,344.6,0.00,14.2,130.0,"20:31:44",1
"21/06/08","20:50",0.0,21.7,62.3,1010.0,308.3,1.3,2.2,324.2,0.00,14.2,130.0,"20:49:28",1
"21/06/08","21:00",0.0,21.7,62.4,1009.7,309.0,1.5,3.7,322.7,0.00,14.2,130.0,"20:51:36",1
"21/06/08","21:10",0.0,22.0,62.1,1010.0,327.5,2.2,3.3,327.7,0.00,14.5,130.0,"21:00:02",1
"21/06/08","21:20",0.0,22.5,60.3,1010.4,328.7,2.5,3.7,341.9,0.00,14.5,130.0,"21:14:08",1
"21/06/08","21:30",0.0,22.4,60.5,1010.2,334.1,2.3,3.9,334.8,0.00,14.4,130.0,"21:23:36",1
"21/06/08","21:40",0.0,22.4,60.7,1010.4,338.0,2.0,3.7,341.6,0.00,14.5,130.0,"21:33:28",1
"21/06/08","21:50",0.0,22.4,60.5,1010.4,337.3,2.5,3.9,343.3,0.00,14.4,130.0,"21:48:00",1
"21/06/08","22:00",0.0,22.4,60.3,1010.4,332.8,2.6,3.6,334.4,0.00,14.4,130.0,"21:58:32",1
"21/06/08","22:10",0.0,22.6,59.3,1010.7,330.8,3.5,5.5,341.0,0.00,14.3,130.0,"22:09:44",1
"21/06/08","22:20",0.0,22.6,59.7,1010.7,335.5,3.5,5.5,341.0,0.00,14.4,130.0,"22:15:20",1
"21/06/08","22:30",0.0,22.5,60.6,1010.4,333.5,3.5,5.9,343.1,0.00,14.5,130.0,"22:24:40",1
"21/06/08","22:40",0.0,22.1,62.9,1010.7,337.2,3.1,5.2,335.6,0.00,14.7,130.0,"22:30:48",1
"21/06/08","22:50",0.0,22.1,64.2,1010.7,338.0,3.7,6.2,339.6,0.00,15.1,130.0,"22:47:52",1
"21/06/08","23:00",0.0,22.0,64.9,1010.4,339.1,4.0,8.3,336.6,0.00,15.1,130.0,"22:56:56",1
"21/06/08","23:10",0.0,21.8,65.7,1010.4,333.3,4.1,6.7,345.9,0.00,15.1,130.0,"23:03:12",1
"21/06/08","23:20",0.0,21.7,66.4,1010.7,333.6,3.9,5.9,341.6,0.00,15.2,130.0,"23:12:08",1
"21/06/08","23:30",0.0,21.6,67.0,1010.7,328.9,3.4,5.8,292.0,0.00,15.3,130.0,"23:27:44",1
"21/06/08","23:40",0.0,21.6,67.1,1010.4,333.4,4.1,6.6,324.8,0.00,15.3,130.0,"23:31:28",1
"21/06/08","23:50",0.0,21.4,67.6,1010.4,335.3,3.5,6.4,344.1,0.00,15.2,130.0,"23:46:16",1
"21/06/08","24:00",0.0,21.2,68.2,1010.4,346.6,2.7,4.5,344.6,0.00,15.1,130.0,"23:51:52",1
